Powrót do katalogu

STARLINK-4251

AktywnyŁącznośćSSO
NORAD 53083·PAYLOAD·🇺🇸 United States

Wystrzelony Jul 11, 2022 z Vandenberg Space Force Base

Loading…

Następne Przeloty (najbliższe 24 godziny)

TLE

ŚwieżeSource: CelesTrak SupGP

Epoka: Sep 14, 2026, 20:49 UTC

1 53083C 22077AS  26257.86784722  .00087795  00000+0  27253-2 0  2576
2 53083  97.2856  73.5965 0001670  86.5362  97.2009 15.33394521    11

Śledź STARLINK-4251 w czasie rzeczywistym z AllMySat

Download on the App Store